SVA1804 OERK-OEGN

Flight info

Callsign SVA1804
Flight time 1h 45m
Altitude 38000
Route MERVI Z414 EMEKO/N0436F390 V40 ABH/N0376F240 V40 GIZ
Aircraft A20N/M-SDE2E3FGHIRWXY/LB1

Departure

Time 2026-04-16 21:21
Airport King Khalid International Airport (OERK)

Arrival

Time 2026-04-16 23:06
Airport Jizan Regional Airport / King Abdullah bin Abdulaziz Airport (OEGN)
Time Latitude Longitude Altitude Speed Heading
2026-04-16 21:21 25.04273 46.67538 6199 ft 277 kts 341°
2026-04-16 21:21 25.06152 46.66796 6955 ft 287 kts 336°
2026-04-16 21:22 25.07787 46.65543 7914 ft 286 kts 310°
2026-04-16 21:22 25.08789 46.63711 8535 ft 281 kts 285°
2026-04-16 21:22 25.08998 46.61586 8829 ft 276 kts 261°
2026-04-16 21:22 25.08637 46.59532 8956 ft 276 kts 255°
2026-04-16 21:23 25.08192 46.57473 8975 ft 275 kts 255°
2026-04-16 21:23 25.07626 46.55452 8980 ft 274 kts 246°
2026-04-16 21:23 25.06796 46.53589 8973 ft 273 kts 238°
2026-04-16 21:23 25.05776 46.51810 8978 ft 273 kts 237°
2026-04-16 21:24 25.04770 46.50024 8973 ft 273 kts 237°
2026-04-16 21:24 25.03786 46.48251 8987 ft 273 kts 238°
2026-04-16 21:24 25.02794 46.46458 8986 ft 273 kts 238°
2026-04-16 21:24 25.01802 46.44665 8972 ft 273 kts 238°
2026-04-16 21:25 25.00817 46.42888 8978 ft 274 kts 238°
2026-04-16 21:25 24.99821 46.41094 8970 ft 273 kts 238°
2026-04-16 21:25 24.98812 46.39302 8993 ft 275 kts 236°
2026-04-16 21:25 24.97776 46.37553 9404 ft 275 kts 236°
2026-04-16 21:26 24.96720 46.35799 10438 ft 271 kts 236°
2026-04-16 21:26 24.95637 46.33999 10936 ft 292 kts 236°
2026-04-16 21:26 24.94489 46.32077 11252 ft 315 kts 237°
2026-04-16 21:26 24.93258 46.30010 11899 ft 323 kts 237°
2026-04-16 21:27 24.92029 46.27946 12738 ft 327 kts 237°
2026-04-16 21:27 24.90772 46.25838 13564 ft 331 kts 237°
2026-04-16 21:27 24.89496 46.23699 14322 ft 336 kts 238°
2026-04-16 21:27 24.88200 46.21525 15039 ft 340 kts 238°
2026-04-16 21:28 24.86884 46.19354 15733 ft 345 kts 236°
2026-04-16 21:28 24.85336 46.17288 16421 ft 351 kts 229°
2026-04-16 21:28 24.83547 46.15454 17089 ft 358 kts 221°
2026-04-16 21:28 24.81523 46.13802 17767 ft 364 kts 219°
2026-04-16 21:29 24.79469 46.12163 18414 ft 368 kts 219°
2026-04-16 21:29 24.77377 46.10484 19017 ft 372 kts 219°
2026-04-16 21:29 24.75306 46.08818 19615 ft 375 kts 219°
2026-04-16 21:29 24.73180 46.07107 20220 ft 378 kts 219°
2026-04-16 21:30 24.71046 46.05391 20792 ft 382 kts 219°
2026-04-16 21:30 24.68884 46.03653 21381 ft 386 kts 219°
2026-04-16 21:30 24.66698 46.01896 21952 ft 390 kts 219°
2026-04-16 21:30 24.64522 46.00149 22519 ft 394 kts 219°
2026-04-16 21:31 24.62292 45.98359 23082 ft 398 kts 219°
2026-04-16 21:31 24.60041 45.96552 23624 ft 402 kts 219°
2026-04-16 21:31 24.57763 45.94724 24109 ft 405 kts 219°
2026-04-16 21:31 24.55507 45.92916 24638 ft 406 kts 219°
2026-04-16 21:32 24.53204 45.91070 25150 ft 409 kts 219°
2026-04-16 21:32 24.50891 45.89217 25646 ft 411 kts 219°
2026-04-16 21:32 24.48562 45.87351 26130 ft 414 kts 219°
2026-04-16 21:32 24.46250 45.85501 26589 ft 417 kts 219°
2026-04-16 21:33 24.43896 45.83618 27052 ft 419 kts 219°
2026-04-16 21:33 24.41541 45.81735 27497 ft 422 kts 219°
2026-04-16 21:33 24.39148 45.79822 27927 ft 424 kts 219°
2026-04-16 21:33 24.36773 45.77925 28337 ft 427 kts 219°
2026-04-16 21:34 24.34354 45.75994 28755 ft 429 kts 219°
2026-04-16 21:34 24.31927 45.74056 29132 ft 431 kts 219°
2026-04-16 21:34 24.29504 45.72124 29505 ft 434 kts 220°
2026-04-16 21:34 24.27046 45.70164 29885 ft 436 kts 220°
2026-04-16 21:35 24.24582 45.68200 30229 ft 439 kts 220°
2026-04-16 21:35 24.22101 45.66225 30584 ft 440 kts 220°
2026-04-16 21:35 24.19647 45.64273 30948 ft 441 kts 220°
2026-04-16 21:35 24.17154 45.62290 31330 ft 442 kts 220°
2026-04-16 21:36 24.14664 45.60310 31784 ft 440 kts 220°
2026-04-16 21:36 24.12185 45.58341 32273 ft 438 kts 220°
2026-04-16 21:36 24.09749 45.56407 32741 ft 436 kts 220°
2026-04-16 21:36 24.07297 45.54460 33203 ft 434 kts 221°
2026-04-16 21:37 24.04857 45.52524 33646 ft 432 kts 221°
2026-04-16 21:37 24.02419 45.50589 34077 ft 430 kts 221°
2026-04-16 21:37 24.00019 45.48686 34453 ft 428 kts 221°
2026-04-16 21:37 23.97605 45.46773 34849 ft 426 kts 222°
2026-04-16 21:38 23.95203 45.44871 35217 ft 424 kts 222°
2026-04-16 21:38 23.92813 45.42979 35557 ft 423 kts 222°
2026-04-16 21:38 23.90462 45.41119 35886 ft 422 kts 223°
2026-04-16 21:38 23.88085 45.39239 36203 ft 420 kts 223°
2026-04-16 21:39 23.85707 45.37358 36524 ft 419 kts 223°
2026-04-16 21:39 23.83340 45.35488 36834 ft 418 kts 223°
2026-04-16 21:39 23.81008 45.33646 37130 ft 417 kts 223°
2026-04-16 21:39 23.78651 45.31785 37419 ft 416 kts 223°
2026-04-16 21:40 23.76324 45.29949 37689 ft 415 kts 224°
2026-04-16 21:40 23.73977 45.28097 37941 ft 415 kts 224°
2026-04-16 21:40 23.71635 45.26250 38053 ft 414 kts 224°
2026-04-16 21:41 23.66983 45.22584 38056 ft 413 kts 224°
2026-04-16 21:41 23.62318 45.18910 38053 ft 413 kts 224°
2026-04-16 21:42 23.57664 45.15249 38054 ft 413 kts 224°
2026-04-16 21:42 23.53003 45.11586 38052 ft 414 kts 224°
2026-04-16 21:43 23.48318 45.07906 38048 ft 414 kts 224°
2026-04-16 21:43 23.43615 45.04287 38041 ft 415 kts 223°
2026-04-16 21:44 23.38870 45.00720 38040 ft 415 kts 223°
2026-04-16 21:44 23.34128 44.97144 38036 ft 415 kts 223°
2026-04-16 21:45 23.29391 44.93565 38034 ft 415 kts 223°
2026-04-16 21:45 23.24645 44.89981 38029 ft 416 kts 223°
2026-04-16 21:46 23.19869 44.86378 38024 ft 416 kts 223°
2026-04-16 21:46 23.15125 44.82803 38013 ft 417 kts 223°
2026-04-16 21:47 23.10373 44.79225 38011 ft 417 kts 224°
2026-04-16 21:47 23.05603 44.75638 38009 ft 418 kts 224°
2026-04-16 21:48 23.00800 44.72026 38001 ft 418 kts 224°
2026-04-16 21:48 22.96029 44.68443 38009 ft 419 kts 224°
2026-04-16 21:49 22.91242 44.64852 38010 ft 419 kts 224°
2026-04-16 21:49 22.86433 44.61247 38009 ft 420 kts 224°
2026-04-16 21:50 22.81641 44.57657 38006 ft 420 kts 224°
2026-04-16 21:50 22.76806 44.54039 38006 ft 420 kts 224°
2026-04-16 21:51 22.72017 44.50459 38001 ft 420 kts 224°
2026-04-16 21:51 22.67205 44.46866 37994 ft 419 kts 224°
2026-04-16 21:52 22.62403 44.43281 37993 ft 419 kts 224°
2026-04-16 21:52 22.57620 44.39714 37988 ft 419 kts 224°
2026-04-16 21:53 22.52832 44.36147 37984 ft 418 kts 224°
2026-04-16 21:53 22.48045 44.32582 37979 ft 418 kts 224°
2026-04-16 21:54 22.43243 44.29011 37982 ft 418 kts 224°
2026-04-16 21:54 22.38476 44.25468 37981 ft 418 kts 224°
2026-04-16 21:55 22.33668 44.21898 37963 ft 418 kts 224°
2026-04-16 21:55 22.28892 44.18354 37954 ft 418 kts 224°
2026-04-16 21:56 22.24091 44.14795 37961 ft 418 kts 224°
2026-04-16 21:56 22.19296 44.11243 37954 ft 418 kts 224°
2026-04-16 21:57 22.14508 44.07700 37957 ft 419 kts 224°
2026-04-16 21:57 22.09713 44.04154 37951 ft 419 kts 224°
2026-04-16 21:58 22.04913 44.00607 37955 ft 420 kts 224°
2026-04-16 21:58 22.00066 43.97030 37949 ft 421 kts 224°
2026-04-16 21:59 21.95244 43.93472 37953 ft 422 kts 224°
2026-04-16 21:59 21.90381 43.89888 37956 ft 423 kts 224°
2026-04-16 22:00 21.86327 43.86902 37958 ft 423 kts 224°
2026-04-16 22:00 21.81476 43.83332 37962 ft 424 kts 224°
2026-04-16 22:01 21.76610 43.79755 37954 ft 424 kts 224°
2026-04-16 22:01 21.71732 43.76173 37950 ft 423 kts 224°
2026-04-16 22:02 21.66879 43.72609 37949 ft 423 kts 224°
2026-04-16 22:02 21.62024 43.69048 37944 ft 423 kts 224°
2026-04-16 22:03 21.57174 43.65494 37941 ft 423 kts 224°
2026-04-16 22:03 21.52315 43.61935 37939 ft 423 kts 224°
2026-04-16 22:04 21.47456 43.58383 37944 ft 423 kts 224°
2026-04-16 22:04 21.42575 43.54814 37931 ft 424 kts 224°
2026-04-16 22:05 21.37713 43.51262 37946 ft 424 kts 224°
2026-04-16 22:05 21.32816 43.47688 37933 ft 424 kts 224°
2026-04-16 22:06 21.27926 43.44148 37934 ft 426 kts 224°
2026-04-16 22:06 21.20541 43.38841 37950 ft 427 kts 224°
2026-04-16 22:07 21.15620 43.35304 37948 ft 428 kts 224°
2026-04-16 22:07 21.10665 43.31742 37954 ft 429 kts 223°
2026-04-16 22:08 21.05698 43.28176 37954 ft 429 kts 223°
2026-04-16 22:08 21.00746 43.24624 37955 ft 429 kts 223°
2026-04-16 22:09 20.95762 43.21052 37957 ft 430 kts 223°
2026-04-16 22:09 20.90814 43.17509 37958 ft 430 kts 223°
2026-04-16 22:10 20.85829 43.13941 37959 ft 430 kts 223°
2026-04-16 22:10 20.80861 43.10389 37957 ft 430 kts 223°
2026-04-16 22:11 20.75888 43.06835 37959 ft 430 kts 223°
2026-04-16 22:11 20.70907 43.03279 37964 ft 431 kts 223°
2026-04-16 22:12 20.65933 42.99732 37967 ft 431 kts 223°
2026-04-16 22:12 20.60969 42.96193 37967 ft 431 kts 223°
2026-04-16 22:13 20.55983 42.92643 37967 ft 431 kts 223°
2026-04-16 22:13 20.50966 42.89071 37973 ft 431 kts 223°
2026-04-16 22:14 20.45987 42.85531 37977 ft 431 kts 223°
2026-04-16 22:14 20.42597 42.83122 37978 ft 431 kts 223°
2026-04-16 22:15 20.37536 42.79527 37987 ft 431 kts 223°
2026-04-16 22:15 20.32567 42.76001 37985 ft 432 kts 223°
2026-04-16 22:16 20.27570 42.72458 37995 ft 432 kts 223°
2026-04-16 22:16 20.22749 42.68694 38003 ft 426 kts 228°
2026-04-16 22:17 20.18108 42.64741 38010 ft 427 kts 228°
2026-04-16 22:17 20.13485 42.60819 38017 ft 427 kts 227°
2026-04-16 22:18 20.08808 42.56857 38015 ft 427 kts 227°
2026-04-16 22:18 20.04169 42.52932 38019 ft 428 kts 227°
2026-04-16 22:19 19.99507 42.48990 38020 ft 428 kts 227°
2026-04-16 22:19 19.94855 42.45060 38023 ft 429 kts 227°
2026-04-16 22:20 19.90170 42.41104 38024 ft 429 kts 227°
2026-04-16 22:20 19.85486 42.37152 38025 ft 430 kts 227°
2026-04-16 22:21 19.80812 42.33213 38031 ft 430 kts 227°
2026-04-16 22:21 19.76132 42.29272 38023 ft 430 kts 227°
2026-04-16 22:22 19.71430 42.25314 38030 ft 431 kts 227°
2026-04-16 22:22 19.66725 42.21357 38030 ft 431 kts 227°
2026-04-16 22:23 19.62041 42.17421 38027 ft 431 kts 227°
2026-04-16 22:23 19.57319 42.13456 38023 ft 431 kts 227°
2026-04-16 22:24 19.52271 42.09933 38025 ft 447 kts 213°
2026-04-16 22:24 19.49300 42.08781 38022 ft 460 kts 204°
2026-04-16 22:24 19.46117 42.08151 38024 ft 472 kts 194°
2026-04-16 22:25 19.42826 42.08098 38020 ft 485 kts 183°
2026-04-16 22:25 19.39453 42.08671 38018 ft 496 kts 172°
2026-04-16 22:25 19.36186 42.09888 38027 ft 506 kts 160°
2026-04-16 22:25 19.32981 42.11507 38041 ft 508 kts 160°
2026-04-16 22:26 19.26602 42.14726 38050 ft 507 kts 160°
2026-04-16 22:26 19.20246 42.17914 38060 ft 508 kts 160°
2026-04-16 22:27 19.13822 42.21130 38082 ft 509 kts 160°
2026-04-16 22:27 19.07440 42.24323 38093 ft 507 kts 160°
2026-04-16 22:28 19.01091 42.27497 38103 ft 507 kts 160°
2026-04-16 22:28 18.94705 42.30685 38119 ft 506 kts 160°
2026-04-16 22:29 18.88356 42.33850 38129 ft 506 kts 160°
2026-04-16 22:29 18.81989 42.37021 38143 ft 506 kts 160°
2026-04-16 22:30 18.75616 42.40192 38151 ft 505 kts 160°
2026-04-16 22:30 18.69275 42.43345 38166 ft 505 kts 160°
2026-04-16 22:31 18.63803 42.46064 38175 ft 506 kts 160°
2026-04-16 22:31 18.57470 42.49208 38195 ft 506 kts 160°
2026-04-16 22:32 18.51077 42.52380 38213 ft 506 kts 160°
2026-04-16 22:32 18.44727 42.55527 38228 ft 506 kts 160°
2026-04-16 22:33 18.38321 42.58700 38234 ft 506 kts 160°
2026-04-16 22:33 18.31983 42.61837 38237 ft 506 kts 160°
2026-04-16 22:34 18.25503 42.64512 38235 ft 496 kts 173°
2026-04-16 22:34 18.22137 42.65181 38049 ft 485 kts 181°
2026-04-16 22:34 18.18781 42.65382 37542 ft 475 kts 188°
2026-04-16 22:35 18.15532 42.65203 36880 ft 472 kts 191°
2026-04-16 22:35 18.12244 42.64985 36179 ft 472 kts 191°
2026-04-16 22:35 18.08959 42.64778 35485 ft 473 kts 191°
2026-04-16 22:35 18.05663 42.64575 34751 ft 474 kts 190°
2026-04-16 22:36 18.02407 42.64378 34012 ft 475 kts 189°
2026-04-16 22:36 17.99109 42.64179 33219 ft 475 kts 189°
2026-04-16 22:36 17.95804 42.63981 32425 ft 475 kts 189°
2026-04-16 22:36 17.92503 42.63783 31586 ft 475 kts 188°
2026-04-16 22:37 17.89194 42.63592 30735 ft 476 kts 188°
2026-04-16 22:37 17.85878 42.63406 30025 ft 473 kts 188°
2026-04-16 22:37 17.82614 42.63224 29345 ft 467 kts 188°
2026-04-16 22:37 17.79377 42.63043 28707 ft 462 kts 188°
2026-04-16 22:38 17.76173 42.62864 28028 ft 457 kts 187°
2026-04-16 22:38 17.73044 42.62688 27394 ft 453 kts 187°
2026-04-16 22:38 17.69897 42.62512 26735 ft 448 kts 187°
2026-04-16 22:38 17.66798 42.62336 26144 ft 444 kts 187°
2026-04-16 22:39 17.63729 42.62163 25550 ft 439 kts 187°
2026-04-16 22:39 17.60688 42.61991 24972 ft 435 kts 187°
2026-04-16 22:39 17.57688 42.61822 24384 ft 432 kts 187°
2026-04-16 22:39 17.54716 42.61648 24056 ft 421 kts 187°
2026-04-16 22:40 17.51842 42.61471 23912 ft 406 kts 187°
2026-04-16 22:40 17.49102 42.61301 23775 ft 391 kts 187°
2026-04-16 22:40 17.46423 42.61135 23655 ft 378 kts 187°
2026-04-16 22:40 17.43844 42.60974 23545 ft 364 kts 187°
2026-04-16 22:41 17.41359 42.60821 23425 ft 352 kts 187°
2026-04-16 22:41 17.38980 42.60552 23295 ft 334 kts 200°
2026-04-16 22:41 17.36963 42.59544 23178 ft 310 kts 223°
2026-04-16 22:41 17.35631 42.57923 23045 ft 286 kts 247°
2026-04-16 22:42 17.35147 42.56001 22915 ft 265 kts 273°
2026-04-16 22:42 17.35560 42.54203 22794 ft 248 kts 300°
2026-04-16 22:42 17.36711 42.52912 22520 ft 243 kts 325°
2026-04-16 22:42 17.38220 42.52135 22083 ft 247 kts 337°
2026-04-16 22:43 17.39891 42.51678 21678 ft 249 kts 349°
2026-04-16 22:43 17.41628 42.51648 21284 ft 252 kts
2026-04-16 22:43 17.43372 42.51797 20902 ft 250 kts
2026-04-16 22:43 17.45079 42.51897 20549 ft 248 kts 359°
2026-04-16 22:44 17.46804 42.51988 20179 ft 247 kts 360°
2026-04-16 22:44 17.48523 42.52081 19834 ft 246 kts
2026-04-16 22:44 17.49653 42.52145 19602 ft 245 kts
2026-04-16 22:44 17.51906 42.52278 19144 ft 244 kts
2026-04-16 22:45 17.53592 42.52477 18781 ft 246 kts 14°
2026-04-16 22:45 17.54650 42.52919 18546 ft 247 kts 28°
2026-04-16 22:45 17.55965 42.54084 18191 ft 249 kts 53°
2026-04-16 22:45 17.56840 42.56254 17974 ft 247 kts 84°
2026-04-16 22:46 17.56854 42.57460 17961 ft 249 kts 99°
2026-04-16 22:46 17.56318 42.59180 17962 ft 247 kts 123°
2026-04-16 22:46 17.55209 42.60531 17963 ft 244 kts 146°
2026-04-16 22:46 17.53717 42.61330 17951 ft 240 kts 168°
2026-04-16 22:47 17.52094 42.61491 17952 ft 237 kts 187°
2026-04-16 22:47 17.50444 42.61360 17949 ft 237 kts 186°
2026-04-16 22:47 17.48785 42.61250 17945 ft 237 kts 186°
2026-04-16 22:47 17.47156 42.61152 17942 ft 237 kts 186°
2026-04-16 22:48 17.45502 42.61054 17938 ft 237 kts 185°
2026-04-16 22:48 17.43848 42.60955 17933 ft 237 kts 185°
2026-04-16 22:48 17.42215 42.60857 17926 ft 237 kts 185°
2026-04-16 22:48 17.40560 42.60757 17920 ft 238 kts 185°
2026-04-16 22:49 17.38837 42.60650 17916 ft 263 kts 185°
2026-04-16 22:49 17.36950 42.60533 17902 ft 275 kts 185°
2026-04-16 22:49 17.35038 42.60419 17863 ft 272 kts 185°
2026-04-16 22:49 17.33196 42.60311 17790 ft 263 kts 185°
2026-04-16 22:50 17.31400 42.60206 17623 ft 253 kts 185°
2026-04-16 22:50 17.29647 42.60102 17279 ft 251 kts 185°
2026-04-16 22:50 17.27905 42.59998 16896 ft 249 kts 185°
2026-04-16 22:50 17.26177 42.59894 16521 ft 247 kts 185°
2026-04-16 22:51 17.24484 42.59792 16166 ft 245 kts 185°
2026-04-16 22:51 17.22794 42.59689 15806 ft 243 kts 185°
2026-04-16 22:51 17.21113 42.59588 15453 ft 241 kts 185°
2026-04-16 22:51 17.19431 42.59486 15107 ft 239 kts 184°
2026-04-16 22:52 17.17770 42.59386 14768 ft 237 kts 184°
2026-04-16 22:52 17.16144 42.59288 14441 ft 236 kts 184°
2026-04-16 22:52 17.14504 42.59189 14114 ft 234 kts 184°
2026-04-16 22:52 17.12884 42.59091 13787 ft 232 kts 184°
2026-04-16 22:53 17.11276 42.58994 13448 ft 230 kts 184°
2026-04-16 22:53 17.09680 42.58897 13097 ft 229 kts 184°
2026-04-16 22:53 17.08110 42.58801 12751 ft 227 kts 183°
2026-04-16 22:53 17.06532 42.58706 12401 ft 226 kts 183°
2026-04-16 22:54 17.04962 42.58611 12067 ft 225 kts 183°
2026-04-16 22:54 17.03411 42.58517 11830 ft 217 kts 182°
2026-04-16 22:54 17.01931 42.58427 11598 ft 211 kts 182°
2026-04-16 22:54 17.00484 42.58340 11295 ft 210 kts 182°
2026-04-16 22:55 16.99029 42.58244 10992 ft 209 kts 186°
2026-04-16 22:55 16.97690 42.57649 10650 ft 214 kts 220°
2026-04-16 22:55 16.96891 42.56330 10299 ft 222 kts 254°
2026-04-16 22:55 16.96927 42.54710 9949 ft 229 kts 289°
2026-04-16 22:56 16.97802 42.53357 9607 ft 230 kts 323°
2026-04-16 22:56 16.99198 42.52565 9276 ft 227 kts 350°
2026-04-16 22:56 17.00739 42.52599 8959 ft 221 kts 16°
2026-04-16 22:56 17.02228 42.52972 8650 ft 218 kts 28°
2026-04-16 22:57 17.03364 42.53914 8333 ft 209 kts 62°
2026-04-16 22:57 17.03762 42.55327 7978 ft 203 kts 97°
2026-04-16 22:57 17.03335 42.56701 7643 ft 199 kts 128°
2026-04-16 22:57 17.02290 42.57623 7329 ft 198 kts 158°
2026-04-16 22:58 17.00939 42.57855 7027 ft 199 kts 187°
2026-04-16 22:58 16.99671 42.57344 6741 ft 201 kts 217°
2026-04-16 22:58 16.98817 42.56203 6465 ft 203 kts 248°
2026-04-16 22:58 16.98639 42.54742 6216 ft 206 kts 274°
2026-04-16 22:59 16.98917 42.53267 5949 ft 207 kts 286°
2026-04-16 22:59 16.99443 42.51862 5696 ft 207 kts 294°
2026-04-16 22:59 17.00079 42.50574 5602 ft 192 kts 297°
2026-04-16 22:59 17.00718 42.49402 5414 ft 185 kts 298°
2026-04-16 23:00 17.01364 42.48245 5159 ft 183 kts 299°
2026-04-16 23:00 17.02009 42.47094 4872 ft 183 kts 299°
2026-04-16 23:00 17.02826 42.46081 4565 ft 185 kts 329°
2026-04-16 23:00 17.04052 42.45817 4287 ft 181 kts 12°
2026-04-16 23:01 17.05104 42.46434 3998 ft 176 kts 54°
2026-04-16 23:01 17.05474 42.47598 3716 ft 169 kts 97°
2026-04-16 23:01 17.04978 42.48666 3426 ft 166 kts 139°
2026-04-16 23:01 17.04817 42.48811 3336 ft 167 kts 140°
2026-04-16 23:02 17.04271 42.49287 3038 ft 174 kts 141°
2026-04-16 23:02 17.03350 42.50053 2835 ft 162 kts 143°
2026-04-16 23:02 17.02509 42.50738 2617 ft 150 kts 144°
2026-04-16 23:02 17.01706 42.51385 2380 ft 140 kts 144°
2026-04-16 23:03 17.00939 42.51952 2196 ft 130 kts 148°
2026-04-16 23:03 17.00193 42.52476 2014 ft 136 kts 148°
2026-04-16 23:03 16.99394 42.53019 1876 ft 138 kts 149°
2026-04-16 23:03 16.98579 42.53538 1689 ft 135 kts 152°
2026-04-16 23:04 16.97762 42.54022 1566 ft 136 kts 153°
2026-04-16 23:04 16.96935 42.54515 1368 ft 137 kts 152°
2026-04-16 23:04 16.96111 42.55011 1149 ft 137 kts 153°
2026-04-16 23:04 16.95276 42.55497 952 ft 136 kts 151°
2026-04-16 23:05 16.94452 42.55991 779 ft 138 kts 150°
2026-04-16 23:05 16.93591 42.56505 622 ft 144 kts 150°
2026-04-16 23:05 16.92712 42.57023 388 ft 147 kts 149°
2026-04-16 23:05 16.91843 42.57544 166 ft 142 kts 148°
2026-04-16 23:06 16.91021 42.58042 37 ft 129 kts 149°
2026-04-16 23:06 16.90304 42.58468 29 ft 104 kts 150°
2026-04-16 23:06 16.89792 42.58771 31 ft 62 kts 152°
2026-04-16 23:06 16.89498 42.58887 28 ft 30 kts 175°
2026-04-16 23:07 16.89400 42.58891 28 ft 1 kts 179°
2026-04-16 23:07 16.89375 42.58892 28 ft 6 kts 179°
2026-04-16 23:07 16.89313 42.58881 28 ft 15 kts 215°
2026-04-16 23:07 16.89362 42.58793 28 ft 21 kts 338°
2026-04-16 23:08 16.89500 42.58702 27 ft 29 kts 331°
2026-04-16 23:08 16.89682 42.58593 27 ft 32 kts 330°
2026-04-16 23:08 16.89881 42.58482 27 ft 31 kts 332°
2026-04-16 23:08 16.89964 42.58413 26 ft 4 kts 242°
2026-04-16 23:09 16.89939 42.58370 27 ft 9 kts 232°
2026-04-16 23:09 16.89909 42.58343 27 ft 0 kts 219°